TimePDT,TemperatureF,Dew PointF,Humidity,Sea Level PressureIn,VisibilityMPH,Wind Direction,Wind SpeedMPH,Gust SpeedMPH,PrecipitationIn,Events,Conditions,WindDirDegrees,DateUTC
12:56 AM,42.1,19.0,40,29.96,10.0,NNW,4.6,-,N/A,,Clear,340,2013-03-31 07:56:00
1:56 AM,41.0,19.9,43,29.95,10.0,NW,3.5,-,N/A,,Clear,310,2013-03-31 08:56:00
2:56 AM,41.0,19.0,41,29.94,10.0,North,3.5,-,N/A,,Clear,350,2013-03-31 09:56:00
3:56 AM,39.9,19.0,43,29.93,10.0,North,4.6,-,N/A,,Clear,10,2013-03-31 10:56:00
4:56 AM,39.9,19.9,45,29.93,10.0,NNE,6.9,-,N/A,,Partly Cloudy,20,2013-03-31 11:56:00
5:56 AM,39.0,19.9,46,29.94,10.0,NNE,5.8,-,N/A,,Clear,20,2013-03-31 12:56:00
6:56 AM,42.1,21.9,45,29.93,10.0,ESE,6.9,-,N/A,,Overcast,120,2013-03-31 13:56:00
7:56 AM,44.1,23.0,43,29.95,10.0,SW,4.6,-,N/A,,Clear,220,2013-03-31 14:56:00
8:56 AM,54.0,26.1,34,29.94,10.0,SE,10.4,-,N/A,,Clear,140,2013-03-31 15:56:00
9:56 AM,57.9,28.9,33,29.93,10.0,SSE,11.5,-,N/A,,Clear,160,2013-03-31 16:56:00
10:56 AM,60.1,30.9,33,29.93,10.0,SSW,16.1,21.9,N/A,,Mostly Cloudy,200,2013-03-31 17:56:00
11:56 AM,64.0,30.0,28,29.91,10.0,South,18.4,33.4,N/A,,Clear,190,2013-03-31 18:56:00
12:56 PM,66.0,25.0,21,29.87,10.0,SSW,21.9,34.5,N/A,,Scattered Clouds,200,2013-03-31 19:56:00
1:56 PM,64.0,24.1,22,29.84,10.0,South,21.9,29.9,N/A,,Scattered Clouds,180,2013-03-31 20:56:00
2:20 PM,62.6,24.8,24,29.95,10.0,SSW,20.7,31.1,N/A,Thunderstorm,Mostly Cloudy,200,2013-03-31 21:20:00
2:48 PM,57.2,17.6,21,29.96,10.0,WNW,19.6,47.2,N/A,,Overcast,300,2013-03-31 21:48:00
2:56 PM,55.9,23.0,28,29.89,10.0,WSW,12.7,26.5,N/A,,Overcast,240,2013-03-31 21:56:00
3:10 PM,50.0,37.4,62,29.98,10.0,NW,16.1,21.9,0.00,Rain-Thunderstorm,Light Rain,320,2013-03-31 22:10:00
3:19 PM,53.6,37.4,54,29.97,10.0,NW,13.8,21.9,0.00,Rain-Thunderstorm,Light Rain,320,2013-03-31 22:19:00
3:39 PM,57.2,32.0,38,29.96,10.0,NNW,11.5,-,0.00,,Mostly Cloudy,330,2013-03-31 22:39:00
3:56 PM,57.0,30.0,36,29.88,10.0,NNW,6.9,-,0.00,,Mostly Cloudy,340,2013-03-31 22:56:00
4:56 PM,55.9,32.0,40,29.89,10.0,NNE,18.4,-,N/A,,Partly Cloudy,20,2013-03-31 23:56:00
5:56 PM,53.1,30.9,43,29.89,10.0,NNE,18.4,-,N/A,,Clear,30,2013-04-01 00:56:00
6:56 PM,48.9,35.1,59,29.91,10.0,North,10.4,-,0.02,Rain,Light Rain,10,2013-04-01 01:56:00
7:56 PM,48.0,34.0,58,29.91,10.0,North,24.2,31.1,0.00,Rain,Light Rain,10,2013-04-01 02:56:00
8:56 PM,43.0,35.1,74,29.92,10.0,NNW,19.6,28.8,0.01,Rain,Light Rain,330,2013-04-01 03:56:00
9:54 PM,41.0,37.4,87,30.03,8.0,North,18.4,23.0,0.04,Rain,Light Rain,360,2013-04-01 04:54:00
9:56 PM,41.0,37.0,86,29.95,8.0,North,18.4,23.0,0.05,Rain,Light Rain,360,2013-04-01 04:56:00
10:14 PM,39.2,35.6,87,30.02,10.0,NNE,19.6,27.6,0.00,Rain,Light Rain,30,2013-04-01 05:14:00
10:56 PM,39.9,35.1,83,29.93,10.0,NE,15.0,23.0,0.00,,Overcast,40,2013-04-01 05:56:00
11:56 PM,39.0,35.1,86,29.92,10.0,North,10.4,-,0.01,Rain,Light Rain,360,2013-04-01 06:56:00